Vertical_Velocity
-0 -4 2 1 -0 -4 -1 1 0 -2 -2 -1 -1 1 -2 -2 -1 -1 -0 -1 -0 -1 -0 -0 -0 -0 -1 -1 -1 -1 -0 0 -1 0 1 -2 -0 1 -2 -2 3 -2 3 1 -0
-3 2 -1 -0 -1 -1 0 -1 -1 -1 -1 -0 0 -0 -1 -1 -1 0 0 -1 -1 -1 -1 -1 -1 -0 -1 -2 -2 -1 1 -0 -1 -3 1 -0 -1 1 -2 -1 -0 2 -2 2 -1
0 -0 -1 1 -3 -1 -1 -0 -1 -2 -1 -1 -1 -2 -1 -0 0 -1 -0 -1 -0 -0 -2 -0 -1 -0 -1 -2 0 -0 -1 -0 -1 -2 -3 1 -3 3 -3 0 -2 0 1 -1 1
1 -2 -0 -2 -2 -0 -0 -1 -1 -1 -1 -2 -3 -2 -1 -0 -2 -1 -0 -1 -1 -1 -1 -0 -1 -2 -2 -0 -0 -1 1 -0 -1 -2 -1 -1 -1 -1 3 -5 2 -1 -3 2 0
-3 -1 -1 -1 -0 -1 -0 -0 -0 -1 -3 -2 -1 -0 -1 -1 -0 -1 -1 -1 -1 -1 -0 -0 -1 -1 -0 -0 1 -1 0 0 0 -1 -1 -0 -1 -0 -1 -5 2 1 3 0 -1
-3 -2 -1 0 -1 1 2 0 -2 -3 -2 -2 -2 -2 -2 -1 -1 -0 -1 -1 -1 -1 -0 -0 -1 0 -0 -0 -0 -0 -0 -1 -1 -0 -0 -0 -0 -0 -7 -3 -5 -0 2 1 2
-2 -1 -0 1 1 2 0 -1 -2 -2 -1 -2 -2 -1 -1 -1 -0 0 -0 -1 -1 -1 1 1 1 0 -0 -0 0 1 0 -0 -1 -2 -0 1 -3 -2 -1 -5 -4 -1 -0 1 1
-2 -0 1 -0 0 0 -0 -2 -3 -2 -2 -1 -1 -0 -0 -1 -0 -0 -0 -0 -1 0 0 0 -0 -1 -1 1 0 -2 -0 3 2 2 -1 1 0 -2 -1 -2 -1 -1 -0 1 0
-1 -1 -1 -0 0 -0 -1 -2 -2 -2 -0 -1 -1 1 -1 -2 -1 -0 -0 -1 -0 1 0 -0 -0 -1 -0 -1 0 1 0 -1 -1 -0 -1 -0 -2 -4 -1 7 0 1 -0 -0 3
-0 0 -0 -1 -0 -1 -1 -1 -2 -2 -1 -2 -1 0 -2 -2 -3 -1 -1 -0 -0 1 1 -0 0 0 -1 -1 -2 -2 -1 -0 -2 2 0 0 -3 -2 -2 -3 -0 -0 2 1 1
-0 -1 -1 -1 -1 -1 -1 -1 0 -1 -1 -2 -0 -1 -1 -1 -1 -2 -0 1 1 1 1 -0 -1 -1 -0 -0 -1 -1 -2 1 -2 -6 4 0 -2 -5 -5 -4 0 -1 2 1 -3
0 -1 -1 -1 -2 -1 0 -0 -1 -1 -0 -0 0 -1 -2 -2 0 -1 0 0 0 -0 -0 2 0 -0 -1 -1 -2 -1 -1 -2 0 -1 -2 -1 -1 -4 -6 -1 -2 -0 2 3 1
-1 -1 -1 -1 -0 -1 -1 -0 -1 -0 -0 -0 0 -1 -2 -1 -1 -0 -0 -0 0 -1 0 -0 -1 -1 -0 -0 -1 -2 -2 -3 -6 3 3 -1 3 3 -3 -4 -1 -4 1 1 2
-1 -2 -1 -1 -1 -1 -1 1 -0 0 1 -0 0 -1 -1 -1 -1 -0 0 -1 -1 -0 -1 1 1 0 -1 -1 -1 -1 -3 -0 -2 -3 -3 -3 -2 6 3 -2 -10 -5 -0 2 2
-1 -1 -1 -1 -1 -2 -2 -1 -1 1 1 -0 0 -1 0 0 1 -2 0 -1 -0 0 -1 0 -1 -1 -1 -1 -0 0 -3 -1 -1 -1 -2 0 -0 -5 -1 3 -1 -2 -8 -3 2
-1 -1 -1 -1 -1 -1 -1 -1 -1 -1 -1 -1 0 -1 1 -1 -0 1 -0 -1 -1 -0 1 -0 -0 0 0 1 -1 -1 -5 -2 -0 -1 2 1 -1 4 -4 -1 0 0 -3 -4 -2
-1 -1 -1 -2 -2 -1 -1 -1 -1 1 1 0 -0 -0 1 -0 -0 -0 0 -2 -2 -3 2 -1 -1 1 1 1 0 -1 -2 -8 -6 -4 -1 0 -6 -2 -1 -3 -2 1 -1 -2 -4
-1 -1 -0 -1 0 -1 -0 -0 1 1 -1 0 1 1 0 1 2 -0 3 1 0 -0 -0 -1 1 2 3 2 -3 -1 0 -0 -19 -5 0 2 -2 -1 2 -0 -1 1 1 1 -2
1 -0 -1 -1 -1 -0 -1 -1 -1 1 1 0 1 -1 1 -1 -2 -1 1 0 2 2 -0 -7 4 0 -2 -1 -1 -4 0 -1 -8 4 -0 1 -3 -4 -3 -5 0 -3 3 2 1
1 -1 -1 -1 -1 -1 -0 1 -2 -0 -1 0 1 -1 -2 1 -1 -0 4 2 -0 -1 0 -1 -11 7 -0 1 1 -0 -2 -7 -2 -15 -8 3 -1 -4 -1 -6 -1 -9 -5 -3 0
0 -0 -1 -1 0 -1 -1 -1 -1 -1 -1 -3 -2 -2 -0 -2 1 -2 -0 -1 0 -1 -1 -2 5 6 3 1 -2 2 -1 -3 2 4 -9 -5 9 -3 -2 -6 -4 -1 1 1 2
0 -0 2 -0 -0 -1 -1 0 0 -1 -1 -2 -1 -1 -2 -1 0 -4 -1 0 1 -0 -1 4 -15 0 1 2 1 1 1 -2 -2 -1 -3 -1 6 3 -5 -1 -1 -2 -3 -2 -2
-1 -0 -0 -1 -2 -1 -1 -1 -2 -0 -2 0 -1 1 2 2 -11 2 4 5 -0 1 -5 -1 -11 -7 -7 0 -2 -3 -0 0 -6 -4 14 -15 1 -6 -10 1 -0 -1 1 -1 -1
-1 -1 -0 -0 -1 0 1 2 -1 -1 1 0 -0 -1 -1 4 -1 -7 -3 -3 1 1 -2 -9 2 6 1 0 -3 -0 2 -1 -2 -10 -3 8 9 -6 -6 -5 -4 -0 1 2 -1
-1 -0 -2 -1 1 -1 0 -0 -1 1 3 -2 4 -1 -1 0 -4 -2 2 1 3 4 1 -3 -6 -6 8 7 -3 -1 3 6 -4 8 -22 32 -3 -7 2 0 -4 -2 -0 -1 -0
-1 0 2 2 1 1 1 5 3 1 2 3 -1 1 -1 5 -6 -3 -10 0 3 3 -0 -0 -16 -4 7 8 1 -10 8 7 6 3 -8 -1 2 -4 0 1 1 1 2 -1 -0
0 0 1 3 1 1 1 -1 1 1 6 -1 -1 1 1 -4 -2 -0 -2 5 1 -4 3 -5 1 -1 -4 2 -7 -14 5 7 6 4 -0 1 2 0 1 -6 -1 1 -0 -0 1
Height
5841 5843 5843 5844 5844 5842 5841 5840 5840 5839 5837 5835 5834 5833 5832 5830 5829 5829 5828 5827 5826 5825 5824 5825 5825 5824 5824 5824 5823 5823 5823 5823 5822 5821 5822 5820 5820 5819 5819 5820 5820 5820 5821 5820 5819
5840 5841 5842 5842 5842 5839 5839 5838 5838 5835 5834 5832 5831 5830 5829 5827 5827 5825 5825 5823 5822 5822 5821 5821 5821 5821 5821 5820 5819 5819 5819 5818 5817 5816 5817 5816 5815 5814 5814 5814 5815 5814 5815 5814 5813
5839 5840 5840 5839 5838 5837 5836 5836 5834 5832 5831 5829 5828 5827 5825 5824 5823 5822 5821 5820 5819 5818 5818 5817 5817 5817 5816 5816 5815 5815 5814 5813 5812 5812 5812 5812 5810 5811 5808 5808 5807 5808 5808 5808 5807
5838 5838 5837 5837 5836 5835 5834 5833 5831 5829 5828 5827 5826 5824 5822 5821 5821 5819 5818 5817 5816 5815 5814 5814 5813 5813 5812 5811 5810 5810 5809 5809 5808 5807 5807 5806 5805 5805 5804 5801 5801 5800 5800 5800 5800
5835 5834 5835 5834 5833 5833 5832 5830 5828 5827 5825 5824 5823 5822 5820 5819 5817 5816 5815 5814 5813 5812 5811 5810 5809 5808 5808 5807 5806 5805 5804 5804 5804 5803 5801 5801 5799 5799 5796 5792 5793 5794 5793 5791 5791
5832 5832 5832 5832 5831 5831 5829 5828 5826 5824 5823 5822 5821 5819 5818 5817 5814 5813 5812 5811 5809 5809 5808 5807 5806 5806 5805 5804 5804 5802 5802 5801 5800 5799 5797 5796 5795 5793 5789 5787 5786 5784 5784 5784 5784
5830 5830 5830 5830 5829 5828 5826 5825 5823 5822 5822 5821 5819 5817 5816 5815 5812 5810 5809 5809 5808 5807 5806 5806 5805 5804 5803 5802 5801 5800 5800 5798 5797 5795 5794 5793 5790 5787 5784 5781 5779 5778 5776 5776 5776
5828 5827 5827 5826 5825 5824 5824 5823 5822 5821 5821 5819 5818 5815 5813 5811 5809 5809 5808 5807 5807 5806 5806 5805 5804 5803 5802 5801 5799 5798 5799 5798 5795 5793 5790 5789 5786 5781 5778 5775 5772 5771 5769 5768 5768
5825 5825 5823 5823 5822 5821 5821 5821 5820 5820 5819 5818 5816 5813 5812 5810 5808 5807 5807 5807 5806 5806 5805 5804 5802 5801 5800 5799 5798 5797 5795 5793 5791 5788 5785 5783 5781 5776 5773 5771 5766 5763 5761 5760 5760
5823 5821 5820 5820 5819 5818 5818 5818 5819 5818 5817 5816 5814 5813 5810 5809 5807 5806 5806 5806 5805 5804 5804 5802 5801 5799 5798 5797 5795 5793 5791 5789 5786 5785 5782 5778 5775 5771 5766 5763 5760 5757 5754 5753 5752
5819 5818 5817 5816 5815 5815 5815 5816 5818 5817 5815 5814 5813 5810 5808 5808 5806 5806 5805 5805 5804 5802 5801 5799 5798 5796 5795 5793 5791 5789 5786 5784 5781 5779 5778 5774 5768 5764 5760 5757 5753 5749 5748 5746 5744
5815 5815 5814 5813 5812 5812 5812 5813 5813 5814 5813 5812 5810 5809 5807 5806 5805 5804 5804 5803 5801 5799 5798 5798 5795 5793 5791 5789 5786 5784 5782 5779 5778 5774 5771 5768 5765 5759 5754 5751 5747 5743 5741 5740 5737
5812 5811 5811 5810 5809 5809 5810 5810 5810 5810 5810 5809 5808 5807 5806 5805 5803 5802 5801 5800 5798 5796 5795 5793 5791 5789 5787 5784 5782 5779 5776 5773 5771 5769 5766 5763 5761 5755 5748 5744 5741 5736 5734 5733 5731
5809 5808 5808 5807 5808 5806 5806 5806 5806 5807 5807 5807 5805 5804 5804 5802 5801 5799 5798 5797 5795 5793 5791 5789 5787 5784 5782 5779 5777 5775 5771 5767 5764 5762 5758 5755 5753 5749 5744 5739 5733 5729 5726 5725 5725
5805 5805 5804 5803 5803 5803 5803 5802 5803 5803 5804 5804 5802 5801 5799 5799 5798 5796 5794 5793 5790 5788 5787 5785 5782 5779 5777 5774 5771 5769 5764 5761 5757 5755 5752 5749 5746 5741 5738 5734 5729 5724 5718 5714 5715
5802 5802 5801 5800 5799 5798 5798 5798 5799 5800 5799 5798 5797 5796 5795 5794 5793 5792 5790 5788 5786 5783 5781 5779 5777 5775 5772 5768 5765 5761 5757 5753 5750 5747 5745 5743 5739 5735 5730 5726 5722 5718 5713 5709 5705
5798 5798 5797 5795 5795 5794 5794 5794 5795 5794 5794 5793 5792 5791 5790 5789 5788 5786 5785 5782 5780 5777 5776 5773 5772 5769 5766 5762 5758 5755 5750 5745 5742 5739 5736 5734 5730 5727 5723 5718 5715 5710 5707 5704 5700
5793 5793 5792 5791 5790 5789 5789 5790 5789 5788 5787 5787 5786 5785 5785 5784 5782 5780 5779 5777 5774 5771 5767 5765 5765 5762 5759 5756 5752 5748 5745 5741 5732 5729 5727 5726 5722 5719 5716 5711 5707 5701 5697 5695 5692
5789 5788 5788 5787 5786 5785 5785 5784 5783 5782 5782 5781 5780 5779 5779 5777 5775 5773 5771 5770 5767 5764 5761 5756 5755 5755 5752 5748 5746 5739 5736 5733 5727 5721 5715 5712 5710 5706 5702 5699 5694 5690 5687 5685 5683
5784 5784 5783 5782 5782 5781 5780 5779 5777 5776 5775 5774 5773 5772 5771 5770 5767 5765 5763 5762 5759 5757 5753 5749 5744 5745 5743 5740 5737 5732 5728 5723 5718 5710 5703 5700 5697 5693 5688 5684 5679 5675 5673 5671 5671
5779 5778 5778 5777 5776 5775 5774 5773 5771 5770 5769 5768 5766 5764 5763 5760 5759 5756 5754 5753 5750 5747 5744 5741 5737 5734 5732 5729 5725 5721 5716 5712 5708 5702 5695 5690 5685 5682 5678 5672 5667 5664 5661 5658 5657
5773 5773 5771 5771 5771 5769 5768 5767 5766 5763 5762 5760 5758 5756 5754 5752 5750 5748 5746 5744 5740 5737 5734 5731 5725 5722 5720 5716 5713 5708 5704 5699 5694 5689 5682 5680 5672 5671 5667 5662 5657 5653 5648 5643 5639
5766 5766 5765 5764 5763 5762 5761 5759 5757 5756 5753 5752 5750 5748 5746 5744 5740 5738 5737 5734 5731 5727 5723 5719 5712 5710 5706 5705 5699 5693 5690 5685 5679 5673 5670 5665 5662 5656 5649 5646 5642 5638 5634 5629 5625
5760 5758 5757 5756 5755 5754 5752 5751 5749 5748 5746 5743 5741 5739 5735 5734 5732 5725 5724 5721 5719 5715 5711 5705 5702 5699 5695 5692 5686 5679 5674 5669 5664 5659 5656 5649 5648 5643 5637 5633 5629 5624 5620 5615 5610
5751 5750 5748 5747 5746 5744 5742 5741 5740 5737 5737 5734 5732 5728 5725 5723 5721 5716 5712 5707 5705 5701 5697 5691 5686 5681 5677 5675 5672 5667 5660 5655 5650 5646 5638 5640 5631 5625 5620 5616 5611 5607 5602 5597 5592
5741 5740 5739 5738 5736 5734 5731 5730 5728 5726 5724 5722 5719 5715 5712 5711 5706 5701 5697 5693 5689 5685 5680 5677 5668 5665 5660 5657 5652 5647 5642 5640 5633 5630 5624 5621 5616 5609 5605 5599 5594 5589 5584 5580 5575
5731 5730 5729 5728 5725 5723 5720 5718 5715 5712 5711 5708 5704 5702 5700 5696 5691 5688 5683 5679 5675 5668 5663 5656 5650 5644 5641 5637 5631 5628 5626 5619 5615 5610 5607 5602 5596 5590 5584 5579 5574 5569 5564 5560 5555